Theta_e
359 358 357 355 353 355 358 355 353 355 356 352 351 350 345 344 339 336 337 340 340 344 342 339 355 354 358 360 359 358 360 357 356 358 360 359 361 352 345 344 343 344 344 345 346 347 348 347 347 348 349 349 350 351 351 350 350 350 348 349 349 349 349 349 348 347 347 348 346 346 346 346 347 347
361 359 357 355 353 355 355 354 355 356 357 352 352 351 350 350 342 341 337 338 344 344 347 343 343 358 356 355 357 357 358 354 355 356 357 358 358 347 344 344 343 342 342 342 342 344 345 345 345 344 343 344 346 348 349 349 350 350 349 349 349 349 349 348 347 347 347 346 347 347 347 347 346 345
362 360 357 356 354 356 354 354 354 355 354 353 352 352 352 350 348 345 343 337 344 346 341 345 345 344 351 348 347 352 356 355 352 354 357 359 353 347 350 343 342 341 340 339 339 339 339 339 340 340 340 340 342 344 346 347 347 348 348 349 349 348 349 347 346 346 346 346 347 346 346 346 345 345
362 362 360 359 358 358 357 356 355 356 356 355 352 353 353 352 351 349 345 342 340 349 345 346 350 351 350 351 348 349 350 353 351 354 355 358 352 354 354 347 341 340 338 338 337 336 334 335 337 338 339 340 341 342 343 342 344 344 344 346 346 347 347 344 344 345 345 345 345 344 345 345 345 344
363 363 361 361 361 360 357 357 357 355 356 356 354 354 353 350 353 350 348 343 342 349 354 350 348 350 352 347 352 351 350 354 357 350 354 357 354 353 354 354 346 340 337 336 335 334 334 334 335 336 338 338 340 341 342 341 340 339 339 340 339 340 342 341 341 343 343 343 343 343 344 344 343 342
364 364 363 361 361 361 358 358 356 357 355 355 353 353 352 351 352 355 349 346 345 343 350 352 354 352 353 349 353 352 349 349 354 355 355 354 355 354 354 354 353 343 339 335 333 333 333 333 333 334 335 337 337 337 337 337 336 336 336 335 334 334 334 335 337 339 339 341 342 343 343 343 342 342
366 363 363 362 363 361 359 358 358 358 357 356 355 354 355 354 353 355 354 349 346 346 347 353 351 352 354 351 351 354 354 354 353 352 353 351 352 354 353 352 350 344 338 335 333 332 332 332 332 332 334 335 334 334 333 332 332 333 332 331 333 333 332 332 334 336 336 338 340 342 342 341 340 340
365 364 363 362 362 362 360 360 359 359 358 357 357 356 357 357 355 356 356 353 349 348 346 351 351 353 352 353 355 355 354 351 350 351 352 353 352 351 352 353 352 346 338 336 334 333 332 331 331 330 331 331 330 329 328 328 329 329 329 329 329 330 330 329 331 333 333 333 336 339 341 340 339 335
366 365 363 363 364 363 361 361 360 361 360 359 358 357 358 357 357 356 356 355 354 350 348 349 353 355 355 355 355 354 350 351 353 355 354 352 352 354 353 350 349 343 339 337 335 333 332 332 331 330 330 329 328 328 327 327 327 327 327 327 327 328 328 328 327 329 330 330 332 332 335 337 336 334
365 365 365 364 364 363 361 361 361 362 362 361 359 358 358 358 358 357 356 356 354 353 351 351 350 354 352 353 355 357 356 352 350 350 352 355 356 354 351 350 349 350 350 351 349 339 336 334 330 331 331 329 328 328 327 327 326 325 325 323 323 325 326 326 327 327 327 328 330 331 331 333 333 333
365 365 365 365 364 363 363 362 362 363 362 360 361 360 360 359 358 356 356 355 354 353 351 351 352 351 354 353 351 355 358 355 352 348 348 348 351 354 353 350 350 350 349 346 342 344 345 342 341 331 327 328 329 329 328 327 325 324 322 321 320 321 322 323 325 326 325 326 327 327 326 328 331 333
364 365 365 364 365 365 365 364 364 364 363 363 361 362 361 360 357 356 356 354 353 352 351 350 349 351 351 353 355 355 355 352 351 351 348 344 345 345 348 349 347 348 349 349 349 345 342 340 338 331 331 330 330 329 330 330 330 327 324 322 323 323 321 321 323 324 323 323 323 323 323 323 327 329
365 364 364 365 365 366 365 355 353 355 356 363 361 363 362 359 358 356 355 354 353 352 351 350 351 351 351 351 352 351 352 351 351 354 351 346 345 344 342 344 348 348 347 347 348 348 350 349 350 350 349 348 341 337 332 335 335 331 325 323 324 325 323 321 321 322 323 322 322 321 321 322 324 327
363 364 364 363 364 356 353 348 341 335 335 337 352 362 364 361 360 358 356 354 354 353 351 350 349 349 349 350 353 353 355 356 356 351 350 343 343 344 343 343 347 351 349 345 346 348 352 350 351 352 350 351 351 348 346 342 339 336 330 327 325 325 324 322 321 321 322 321 321 320 319 320 323 323
362 363 364 365 365 362 351 353 338 335 332 332 330 331 335 346 359 358 355 355 356 354 353 353 353 352 352 352 355 356 356 356 353 351 347 344 344 340 339 338 346 354 352 349 346 346 351 352 349 350 349 349 351 351 350 341 336 331 330 328 327 325 324 324 323 322 321 321 320 319 318 319 320 321
363 362 362 363 364 365 365 365 365 349 336 330 329 328 328 329 330 335 353 356 355 356 354 354 355 355 353 354 357 357 357 356 350 344 343 342 342 342 340 341 340 352 352 348 347 346 351 352 348 348 348 349 350 348 342 337 335 332 329 329 328 326 325 325 325 325 323 322 322 322 321 321 321 321
363 364 363 363 364 363 362 362 364 366 366 337 327 327 327 327 326 327 326 329 350 358 356 354 353 354 356 355 357 359 359 359 341 340 341 344 345 345 342 343 345 349 355 351 347 343 347 350 347 345 348 350 350 348 339 335 334 332 330 329 328 327 325 325 325 325 323 322 321 321 321 320 320 319
363 363 363 363 363 365 366 367 365 366 366 367 365 359 355 355 349 330 324 323 323 332 348 354 353 358 361 357 360 362 360 355 342 339 341 345 346 345 344 350 351 353 354 349 347 342 344 348 347 345 348 350 350 351 343 335 332 331 329 329 326 326 325 324 324 324 323 322 321 320 318 317 318 318
363 364 364 364 363 365 366 367 366 367 366 366 363 363 362 361 362 364 363 355 349 346 345 348 353 356 359 360 360 360 360 359 349 345 345 347 347 348 351 349 349 350 354 353 347 335 341 346 345 346 348 350 350 351 339 333 331 330 328 327 326 325 324 324 324 323 322 322 320 318 317 316 316 315
365 365 364 364 364 365 365 354 338 346 366 365 362 361 361 361 362 363 355 344 346 359 360 358 355 356 355 338 351 351 349 351 352 345 345 345 344 342 341 339 343 343 351 355 347 341 342 348 345 346 349 350 349 351 352 338 330 328 327 327 325 324 323 322 322 322 322 321 319 318 316 314 313 312
364 364 365 366 364 364 366 349 335 330 334 362 361 360 360 360 361 359 362 345 331 328 328 328 328 324 321 322 322 321 320 333 338 342 339 338 342 339 336 337 340 342 347 351 351 345 342 346 346 345 348 349 347 349 350 352 336 327 325 324 323 323 322 321 320 320 321 320 319 318 317 313 313 313
363 364 357 363 365 365 365 341 331 329 340 359 361 360 358 358 357 358 361 362 361 334 322 321 320 321 323 322 321 322 321 321 324 345 342 345 345 341 341 338 341 343 347 348 353 346 341 345 347 344 346 346 348 347 349 349 347 335 324 321 322 322 322 321 319 320 319 319 318 317 315 313 313 319
363 365 360 351 352 356 354 334 330 327 339 360 361 360 358 356 356 357 361 360 362 363 357 357 358 355 342 356 359 355 332 326 329 347 348 346 344 339 339 340 340 339 341 348 355 344 343 345 345 344 340 338 344 347 347 348 349 352 351 341 333 322 322 321 319 317 317 318 317 317 314 312 315 325
362 363 364 356 332 328 328 327 324 323 322 354 361 361 358 356 356 360 359 354 352 353 354 354 354 354 355 351 350 350 349 347 348 348 347 347 345 343 341 341 340 337 338 347 353 344 344 345 342 346 343 337 334 342 349 349 349 350 354 348 341 329 324 323 320 317 315 315 315 315 314 312 317 325
358 360 361 362 342 325 323 321 318 317 315 325 356 359 359 361 355 342 351 345 344 347 349 350 347 346 346 346 345 343 344 342 343 342 343 343 342 341 338 336 337 337 340 345 341 346 340 341 340 342 341 342 340 340 344 347 349 348 352 347 345 345 336 333 330 329 316 314 313 313 312 312 314 321
358 359 360 363 350 326 321 319 316 314 315 315 342 354 333 325 323 347 339 340 340 343 344 344 342 342 341 340 340 340 340 339 339 341 341 340 340 340 340 337 335 334 334 342 332 340 338 336 337 336 337 339 340 341 341 344 347 350 352 348 347 347 340 336 333 331 328 326 325 318 318 312 314 315
359 361 363 363 349 322 314 313 312 312 311 317 336 324 319 316 316 329 339 340 341 343 343 342 341 339 340 339 338 338 339 338 341 339 340 339 339 340 340 339 338 336 337 338 338 337 334 332 336 333 332 335 335 336 338 337 341 349 346 345 344 346 341 336 332 331 329 327 328 316 313 312 313 314
360 360 363 358 318 313 308 308 309 309 314 340 316 311 313 316 324 339 341 340 343 342 339 339 340 340 339 339 337 337 339 338 340 339 338 338 338 338 338 338 338 337 335 335 334 334 332 331 331 334 334 333 332 331 331 337 340 343 343 341 341 342 342 336 334 332 331 329 329 323 322 319 319 317
361 343 320 308 306 306 304 305 307 309 315 309 310 312 316 329 338 341 342 342 342 342 341 338 339 339 339 338 339 340 340 340 339 339 338 339 338 338 337 337 336 335 333 333 334 334 334 332 331 332 333 333 332 332 333 331 334 337 341 339 335 337 338 338 335 333 331 329 327 323 322 322 321 320
320 311 309 308 308 310 315 333 341 341 335 316 317 317 324 339 339 339 338 340 341 340 338 337 337 337 338 338 339 340 339 338 337 337 335 334 334 334 332 330 331 334 334 335 334 335 336 336 334 333 332 332 334 332 334 334 333 337 338 336 336 337 338 337 334 333 329 328 328 326 327 326 322 319
336 326 331 332 325 324 322 328 328 328 325 328 329 331 335 338 337 337 340 339 340 340 338 337 337 337 338 338 339 338 337 337 338 338 334 332 331 331 330 329 328 329 333 334 334 335 336 337 337 336 333 332 334 335 336 337 335 335 338 341 338 330 334 333 332 332 330 331 330 329 328 324 320 320
346 339 322 323 336 335 336 335 335 334 334 333 333 336 336 336 337 334 328 330 339 340 338 337 338 337 338 337 335 335 335 335 335 336 332 330 329 329 329 327 326 327 328 330 333 336 336 337 338 338 338 336 332 334 336 336 335 335 336 338 336 336 333 331 332 331 330 330 328 325 324 322 319 317
342 341 340 340 339 339 337 335 334 332 332 333 335 336 337 337 337 338 338 338 338 338 337 336 336 334 335 334 335 334 333 333 332 335 332 332 330 329 328 325 325 324 323 325 327 329 332 332 335 338 340 340 339 330 325 325 330 336 336 337 335 332 330 333 332 330 331 328 324 322 320 319 318 318
343 343 343 341 339 337 336 332 331 331 333 333 333 335 329 335 336 336 336 336 335 337 335 335 334 334 333 333 333 332 330 331 332 332 327 331 331 327 325 324 325 325 324 323 324 325 326 328 331 337 342 342 328 325 321 319 320 328 334 337 335 329 329 331 331 329 329 327 322 318 317 317 319 319
344 342 341 339 339 336 334 333 333 333 332 331 332 332 334 335 333 332 334 334 333 334 336 334 333 333 332 332 331 329 329 328 329 331 331 330 330 328 326 324 323 323 323 323 323 324 324 324 327 330 334 338 332 328 325 321 317 325 334 332 329 328 327 329 327 327 328 325 323 318 317 317 316 318
343 342 341 338 337 336 334 332 332 331 332 333 334 334 334 334 334 334 334 332 335 334 335 332 331 332 332 331 329 329 328 326 329 329 329 328 327 326 327 326 325 324 324 323 322 323 323 323 323 324 326 327 325 321 321 325 320 321 329 325 328 327 325 325 324 324 323 320 319 315 312 311 313 316
340 341 340 337 335 333 332 332 332 334 333 334 335 336 335 333 334 334 334 332 334 334 330 332 331 331 331 329 329 327 328 328 328 328 327 328 327 326 326 325 325 325 325 325 325 324 323 321 320 320 321 321 318 315 317 321 318 314 323 322 319 320 318 318 317 316 317 317 316 315 313 312 312 315
339 338 336 334 334 334 334 334 334 335 336 335 335 334 334 334 334 334 333 335 334 332 333 333 330 331 331 329 331 330 330 330 329 329 327 327 326 326 325 325 325 326 325 326 326 324 323 321 319 318 319 318 317 315 314 316 317 314 309 320 317 318 319 317 316 315 315 316 314 314 314 312 313 315
335 333 331 331 331 332 333 334 334 334 334 333 333 332 332 332 332 332 333 333 334 333 333 332 331 331 331 332 329 329 330 329 328 328 327 326 325 326 325 325 324 326 325 323 324 324 323 320 318 318 318 316 314 313 314 312 310 317 314 306 319 320 319 317 315 316 316 315 317 318 318 318 316 314
328 330 329 329 330 331 331 332 332 333 331 330 330 331 331 330 332 333 333 332 334 334 334 331 330 329 333 330 329 330 329 329 327 327 328 327 325 325 325 327 325 325 324 323 322 322 322 320 319 319 320 320 320 320 320 320 320 322 321 315 305 316 320 319 315 315 314 317 320 318 316 318 315 317
326 326 327 329 329 329 329 330 330 330 330 329 329 325 330 331 331 333 332 331 331 332 332 332 332 333 332 331 331 329 329 327 327 327 327 327 325 325 323 321 327 326 324 322 323 322 322 324 325 318 326 326 325 326 321 317 314 314 316 318 310 307 310 316 319 317 316 319 318 316 315 315 314 316
327 327 327 328 328 328 329 330 330 330 329 330 330 330 329 330 329 321 328 328 332 332 332 331 331 330 331 331 330 327 328 327 327 326 326 326 327 327 324 323 324 325 323 321 321 322 325 328 328 327 326 325 323 319 314 314 312 312 315 318 319 313 310 308 310 315 324 319 316 313 314 313 314 313
327 328 327 327 328 329 329 329 330 329 329 330 329 329 330 331 332 332 333 333 333 332 331 331 331 331 331 331 330 329 329 327 327 328 327 326 326 325 325 324 324 325 324 324 324 324 325 326 328 326 324 322 319 319 314 315 316 316 316 316 318 320 320 314 310 309 310 308 309 315 320 315 311 307
328 327 327 327 327 327 328 328 328 328 329 329 328 329 330 330 330 331 332 332 332 331 331 332 332 331 332 331 331 331 328 327 328 328 326 325 326 326 325 324 324 326 325 324 324 322 323 323 324 323 322 320 321 317 315 314 313 314 316 317 318 318 317 319 320 316 316 314 309 308 309 309 309 312
326 324 323 323 323 324 325 326 327 327 328 329 330 329 329 329 329 330 331 332 332 332 332 332 332 333 333 332 331 328 328 323 325 328 327 326 324 323 324 324 323 323 323 324 324 322 322 321 322 322 320 319 319 317 316 315 314 312 314 314 313 315 315 315 313 313 315 315 311 308 309 310 310 310
Wind_Speed
6 5 6 5 5 4 3 3 4 3 3 4 4 4 5 5 7 7 7 7 6 3 2 4 1 1 3 2 3 4 5 7 7 7 8 8 9 10 14 15 15 15 16 16 16 17 17 17 17 17 17 17 18 18 17 16 16 16 16 15 15 15 15 13 12 12 11 10 11 10 11 10 9 9
5 5 5 5 5 5 4 5 4 3 4 4 4 4 4 4 6 6 8 10 6 7 5 5 3 3 2 3 3 4 6 7 8 8 8 9 9 12 12 14 15 16 16 16 17 17 18 18 18 18 18 19 19 19 19 18 18 18 17 16 16 16 16 15 14 14 13 12 12 11 11 11 10 9
5 6 6 5 5 5 5 5 4 4 4 5 4 4 4 5 6 6 6 10 6 3 5 4 5 5 4 5 6 5 5 6 8 8 8 9 12 11 10 12 14 15 16 16 17 17 18 18 18 18 19 19 20 20 20 20 20 19 18 18 18 17 17 16 15 14 14 13 13 12 11 11 10 9
5 6 7 6 5 5 4 5 5 5 5 5 5 5 4 5 6 6 7 9 12 6 7 7 7 8 7 6 7 7 6 5 8 8 8 9 9 8 9 13 15 16 17 17 18 18 19 19 20 20 20 20 20 20 21 21 20 20 20 20 19 19 18 17 16 15 14 14 13 13 12 11 11 10
6 6 7 7 6 5 6 5 5 5 6 5 5 5 5 6 5 6 7 9 12 9 6 7 8 7 6 9 7 8 8 7 5 8 8 9 8 8 8 9 12 16 17 18 18 19 19 20 21 21 21 21 22 21 21 21 21 21 20 20 20 19 18 17 16 15 14 14 13 13 12 12 11 10
6 6 7 8 7 6 7 6 6 6 6 6 6 6 6 7 7 6 7 9 9 13 7 7 6 7 6 8 7 8 9 9 7 7 7 7 8 8 8 8 9 13 16 17 19 20 20 21 22 22 23 23 23 23 23 22 22 22 21 21 20 19 19 18 17 16 15 14 14 13 12 12 12 11
7 8 8 8 7 5 6 7 7 7 7 7 7 8 7 7 8 7 8 8 10 12 12 7 9 7 6 7 8 7 7 7 8 9 9 9 7 7 9 9 10 10 14 17 19 20 21 22 22 23 23 24 24 24 24 23 22 22 22 21 21 20 19 19 18 17 16 15 14 13 13 13 13 11
8 9 8 8 8 7 7 7 7 7 7 7 7 7 7 7 8 7 7 8 9 9 12 9 8 8 8 8 7 6 7 8 8 8 9 9 9 9 8 9 10 11 13 16 19 21 22 23 23 23 24 24 24 24 23 23 22 22 22 22 21 21 21 20 19 19 17 16 16 15 15 14 14 12
9 9 9 9 7 7 8 8 8 8 8 7 7 7 7 7 7 6 7 8 8 9 11 11 8 8 8 8 8 8 9 7 7 8 9 9 9 9 10 10 10 13 15 17 20 21 22 23 24 24 24 24 24 23 23 24 24 24 24 24 24 23 23 22 21 20 19 18 18 17 16 15 14 13
10 9 9 9 8 9 9 9 8 8 9 7 8 9 8 7 6 7 8 8 8 9 11 10 11 8 9 8 7 6 6 7 8 8 8 8 7 8 10 10 9 9 9 8 11 17 20 23 24 24 23 25 25 24 25 26 26 26 25 25 25 24 23 23 22 21 21 20 19 18 18 16 15 14
10 10 9 9 9 10 10 10 9 8 9 9 9 9 9 8 7 8 8 8 9 10 11 10 10 10 8 8 9 6 5 6 6 9 9 8 6 7 8 8 8 9 11 15 19 17 15 15 15 20 25 26 27 26 25 25 25 24 24 23 23 22 22 22 21 21 20 20 19 19 18 17 16 15
10 10 10 10 10 10 10 10 9 9 9 8 9 8 8 8 9 9 9 10 11 12 12 12 12 11 10 8 8 6 5 7 7 7 7 9 8 9 8 9 8 8 9 12 13 14 16 18 20 21 21 25 25 23 23 25 24 23 23 22 23 22 21 21 20 19 17 17 17 18 18 17 16 16
10 10 10 10 10 10 10 11 10 10 8 7 9 8 8 9 10 11 11 11 11 11 12 12 12 11 10 10 10 9 7 7 8 4 4 7 10 9 8 9 7 8 10 12 14 14 13 12 11 10 12 14 19 20 24 21 24 25 24 24 24 23 22 20 19 18 18 17 17 17 17 17 17 16
11 11 11 10 11 11 12 12 14 14 14 13 12 10 8 10 10 10 10 11 11 11 12 12 12 13 12 12 10 11 8 7 6 6 5 9 11 6 8 12 7 7 10 11 12 14 11 11 12 12 13 12 11 12 13 14 17 20 24 25 24 24 22 21 20 19 19 18 18 18 18 17 17 17
11 10 10 10 10 11 12 13 15 14 15 16 16 17 15 12 13 13 13 11 11 11 12 12 12 11 13 14 13 11 11 7 8 3 6 7 6 10 10 12 10 7 8 9 11 14 13 10 12 12 13 13 11 11 14 17 20 23 22 21 23 23 22 22 21 21 21 20 19 20 19 18 18 17
10 10 10 10 8 9 11 10 10 13 17 17 16 17 16 16 17 16 14 14 14 14 14 13 11 11 14 14 12 12 11 8 4 5 7 6 8 10 11 12 13 4 7 8 10 15 16 7 11 13 14 12 11 14 16 17 19 20 21 23 22 22 21 21 23 23 23 23 22 21 21 20 19 18
10 9 9 10 9 9 11 10 12 11 10 14 18 18 17 16 16 18 19 17 16 15 17 17 17 14 15 16 15 13 10 1 5 12 14 9 8 8 14 15 13 13 7 7 12 19 20 11 10 14 15 13 13 15 18 22 22 21 21 22 22 19 20 23 24 24 24 24 24 24 22 21 21 20
11 11 11 10 10 10 10 9 11 11 11 10 9 9 9 10 14 17 19 20 21 18 14 16 19 16 12 14 14 12 10 9 6 7 15 13 10 13 17 16 15 15 11 10 9 15 19 14 14 20 17 12 13 14 19 22 22 22 22 21 19 20 22 26 24 23 24 25 24 24 22 22 22 21
12 12 11 11 12 11 10 9 10 10 10 10 11 12 14 13 14 13 12 12 11 11 12 13 15 16 13 13 13 11 11 11 7 9 14 15 14 17 19 18 19 16 11 14 11 18 14 13 14 18 16 14 14 15 17 20 22 21 20 20 20 24 26 22 22 23 24 25 25 25 23 23 23 22
11 12 12 11 12 12 12 12 13 12 10 11 13 14 14 13 13 12 12 14 14 13 11 10 13 13 11 8 10 12 8 5 6 9 11 13 15 17 17 17 14 13 9 11 13 16 18 16 17 18 16 15 17 15 14 17 19 21 20 20 21 24 23 22 23 24 25 24 24 24 24 23 23 22
13 12 12 12 11 12 12 13 13 14 11 10 13 14 15 13 13 14 14 14 14 15 17 18 16 13 14 17 18 17 16 11 8 8 8 12 12 12 13 15 15 16 14 11 14 16 18 15 14 17 16 16 18 19 18 16 16 19 20 21 23 23 23 24 26 24 22 22 22 23 24 24 23 24
12 13 15 13 13 13 13 13 13 13 10 9 12 13 14 14 13 14 13 12 11 10 9 7 10 12 13 15 15 15 15 14 9 8 13 14 11 13 14 15 13 14 14 14 12 13 16 14 14 19 19 19 16 19 19 20 18 16 16 22 23 25 25 25 24 24 25 24 26 27 26 23 23 18
11 11 11 15 15 14 14 14 12 11 10 10 10 12 13 13 13 13 13 13 11 6 5 8 10 10 10 10 10 9 12 13 12 11 12 11 11 13 13 14 15 17 13 9 10 14 14 13 14 15 16 17 15 14 15 15 14 11 7 10 15 23 25 23 23 26 26 27 26 25 27 28 24 14
12 11 11 11 16 19 19 18 14 9 11 10 11 11 12 11 13 10 3 4 7 9 4 5 9 11 10 9 8 8 7 6 5 6 8 9 9 11 12 13 13 15 14 8 8 14 16 14 18 13 17 18 17 8 9 11 11 12 8 8 9 18 22 23 21 27 25 25 26 27 29 29 26 13
11 10 10 11 12 18 19 18 16 14 13 11 10 11 12 12 3 5 3 3 6 9 12 9 7 7 7 7 7 7 6 6 6 6 7 8 9 10 12 13 13 14 14 12 11 13 16 15 18 16 16 17 19 18 12 10 11 11 7 10 11 12 11 13 12 13 22 27 27 28 26 28 28 20
11 11 9 9 10 15 15 16 15 15 13 13 7 10 9 7 7 2 3 2 2 5 6 7 8 8 8 8 7 7 7 7 7 8 8 9 10 10 10 12 14 15 15 12 13 14 15 15 15 17 15 14 20 16 16 13 10 8 8 8 12 10 11 15 12 13 13 11 14 20 22 28 28 27
10 10 9 9 8 11 12 12 12 11 8 6 7 4 3 7 8 5 3 4 4 4 4 5 5 6 6 7 7 7 8 8 8 9 9 10 11 10 10 11 12 15 16 17 15 14 13 15 12 14 15 13 15 16 12 13 11 3 7 10 12 10 11 12 12 15 15 18 16 25 24 26 26 26
10 9 9 5 10 9 10 8 7 7 8 3 7 6 6 6 5 3 3 3 3 3 3 4 4 4 5 6 6 7 8 9 9 10 10 10 11 11 11 13 14 14 18 18 17 16 15 14 12 12 14 13 12 14 16 11 11 10 8 7 9 10 6 9 11 9 10 11 8 11 9 12 16 18
8 2 8 11 10 9 9 10 9 6 4 6 8 7 7 4 3 3 3 3 2 3 3 2 3 4 4 5 6 7 9 10 10 9 9 10 11 11 12 13 14 15 13 13 14 14 14 13 13 13 12 13 13 14 13 16 13 12 7 5 8 9 10 11 11 11 10 11 12 14 16 15 15 13
6 9 9 11 11 10 9 7 5 5 5 5 6 5 4 4 4 4 3 2 2 1 1 2 3 4 4 5 6 8 8 8 7 8 9 10 10 10 12 14 14 14 13 14 15 14 14 13 12 13 13 13 12 15 14 14 14 11 10 9 10 6 9 10 10 9 11 13 14 14 10 15 17 16
4 7 7 6 7 8 7 7 8 8 7 5 4 4 4 3 3 3 3 2 1 1 1 2 3 4 5 5 7 7 7 8 7 7 8 9 11 11 13 14 14 14 12 14 15 15 15 15 14 13 13 13 12 14 15 12 13 13 13 9 8 11 6 9 8 9 11 10 8 9 12 11 11 14
7 7 8 9 7 8 7 6 5 4 4 4 4 4 4 3 3 2 3 1 1 0 1 2 3 4 4 5 5 7 7 7 7 8 9 10 11 11 12 12 14 15 17 17 15 15 14 13 13 11 13 13 13 12 11 13 15 13 13 10 8 9 5 10 10 11 11 11 9 11 14 14 14 11
8 8 7 7 6 6 7 6 5 5 5 5 5 5 4 4 4 4 4 2 2 1 1 1 3 4 4 5 5 6 7 7 8 7 9 9 10 11 11 12 14 15 17 16 15 15 15 14 14 13 11 12 9 6 7 8 8 8 11 12 8 9 9 9 10 12 10 10 8 10 12 10 11 12
9 10 8 7 8 7 7 7 7 7 7 7 6 5 4 4 4 3 3 2 2 1 1 1 2 3 4 4 5 6 6 8 8 8 9 8 9 10 11 13 13 14 14 15 16 15 15 15 14 12 11 6 8 7 8 8 10 10 10 12 7 7 7 7 8 15 15 14 14 13 12 11 11 10
9 11 10 8 7 7 7 7 8 7 7 7 6 6 5 4 4 3 3 3 1 1 0 0 1 2 3 4 5 5 6 7 8 8 7 8 8 9 10 12 13 13 13 13 14 16 15 15 15 15 12 7 1 4 9 9 9 11 6 4 5 5 7 7 10 10 11 11 13 14 11 10 9 7
11 9 9 8 8 8 7 6 6 6 6 6 6 6 6 5 3 3 3 2 0 1 0 0 2 3 3 3 4 4 4 6 6 7 7 7 8 9 8 9 10 10 10 10 12 15 15 14 14 14 14 11 8 7 8 12 15 11 4 6 6 8 8 9 7 6 9 11 13 16 15 13 10 7
9 8 7 7 7 6 6 6 6 6 6 6 5 4 4 4 4 3 3 1 1 0 1 1 2 2 2 3 3 3 4 4 5 6 6 6 6 7 8 8 9 9 10 10 10 13 14 15 14 14 13 13 12 11 10 10 16 23 9 7 9 8 10 10 11 9 6 10 10 10 13 13 11 8
8 7 7 6 6 5 5 6 6 5 5 4 4 4 3 3 3 3 2 2 1 0 0 1 2 1 1 2 3 3 4 4 4 4 5 5 6 6 7 8 8 9 9 9 10 11 12 14 15 15 12 12 11 12 11 10 9 15 22 9 9 9 9 12 11 12 9 7 13 11 13 13 10 6
6 7 6 6 5 5 5 5 4 4 4 4 4 4 4 3 3 3 2 1 1 0 1 0 1 1 1 1 2 3 4 4 5 5 5 6 6 6 6 7 8 8 9 10 10 10 11 12 13 14 13 11 11 10 9 9 10 10 15 21 8 8 8 11 12 10 12 11 9 10 10 9 12 14
5 5 5 5 5 5 5 4 4 4 4 4 4 4 4 4 3 3 2 2 1 1 0 1 0 1 0 1 2 2 2 3 4 4 5 5 6 6 6 7 7 8 8 9 10 9 9 11 11 10 9 8 7 7 7 7 9 9 11 15 20 12 7 7 12 12 11 9 10 12 12 9 7 3
5 6 7 6 7 6 6 6 6 6 5 5 5 4 4 4 2 2 2 2 1 0 0 1 1 1 1 1 2 3 3 3 3 4 4 5 5 5 7 7 6 8 8 9 9 8 9 8 8 9 7 6 5 3 7 11 13 11 13 12 17 19 17 11 10 11 11 9 10 10 9 7 8 6
7 6 7 7 7 6 6 6 6 6 5 5 5 5 5 4 3 2 3 3 1 1 0 0 1 1 1 1 2 2 3 3 3 3 4 5 5 5 6 6 6 7 7 8 8 8 7 7 7 7 7 7 7 9 11 11 10 10 10 10 10 14 18 18 18 15 11 10 11 11 9 7 7 6
7 8 8 7 7 6 6 6 5 5 5 5 5 5 4 4 3 2 2 2 1 1 1 0 0 1 1 1 1 2 2 2 3 3 4 4 5 5 6 6 6 6 6 5 6 5 6 6 7 6 6 8 8 7 9 9 9 8 8 9 9 9 10 15 17 19 19 19 14 7 3 6 9 9
8 8 8 7 7 6 5 5 5 4 4 4 4 4 4 3 3 3 2 1 1 1 0 0 0 1 1 1 2 1 1 3 3 3 4 3 3 4 5 5 5 6 5 5 5 5 6 6 6 6 6 7 6 6 7 7 8 8 7 7 7 8 8 7 8 10 12 16 19 15 13 9 5 3
7 7 7 7 7 6 5 4 4 4 3 3 4 4 3 3 3 3 2 1 1 1 0 0 0 0 1 1 2 2 2 3 4 2 3 3 3 3 3 3 4 4 4 4 4 4 5 5 5 5 5 6 6 6 6 6 5 5 6 6 6 5 4 4 6 5 5 5 12 13 11 11 10 6
Wind_Direction
236 234 228 238 248 249 234 247 249 242 240 247 249 250 266 274 281 296 297 294 296 276 255 307 139 198 238 244 249 241 242 248 237 236 230 235 242 222 211 220 223 226 228 229 229 230 232 233 235 236 237 238 239 239 239 238 238 239 240 242 244 246 245 244 242 240 236 231 236 235 238 241 243 247
223 228 225 221 238 237 236 243 242 234 232 236 232 235 241 239 258 274 287 292 288 284 270 251 254 165 219 230 224 232 241 237 228 243 242 240 243 238 220 223 225 228 230 232 232 232 233 234 234 233 233 234 235 236 237 237 237 238 239 240 240 240 240 241 240 239 237 234 231 231 231 235 238 240
223 220 228 218 228 224 237 240 233 222 219 226 229 232 224 227 237 254 264 282 281 216 278 273 261 274 267 271 276 251 238 234 230 240 244 244 246 246 243 234 234 235 235 237 236 236 235 235 235 234 234 233 233 234 234 235 237 238 238 238 237 238 238 239 237 236 235 231 228 230 233 237 237 236
220 223 229 226 225 220 222 234 230 224 221 224 231 227 219 223 224 232 249 256 271 253 269 277 276 269 271 262 257 265 259 239 214 244 245 250 256 253 252 238 232 236 236 238 239 238 238 237 237 236 235 235 234 234 233 233 235 237 238 239 238 239 239 237 235 234 233 231 230 230 229 230 232 233
224 227 232 234 231 219 231 236 242 240 231 225 232 232 229 234 219 218 235 255 272 273 250 261 275 278 273 280 259 262 265 257 231 228 244 251 252 251 250 252 229 226 233 236 238 240 240 239 238 238 236 236 236 235 235 234 234 234 236 237 238 239 239 239 237 235 232 230 228 226 223 224 225 225
224 224 231 236 232 219 229 240 243 247 246 235 237 232 233 239 240 217 236 255 269 282 272 269 262 265 245 266 258 258 272 281 274 250 236 235 238 243 250 249 253 219 225 231 237 240 241 241 240 239 239 238 237 235 235 235 233 233 233 234 234 236 236 237 237 236 233 231 229 224 221 220 219 218
230 228 232 238 230 217 223 231 240 243 242 244 243 241 237 239 244 235 223 248 264 273 280 277 279 273 258 251 274 267 266 269 269 272 267 262 253 237 240 253 261 239 220 229 234 237 239 239 240 239 239 239 238 236 235 234 234 233 232 232 231 230 231 231 232 231 229 227 222 214 216 214 214 211
231 233 237 241 235 227 228 232 236 234 235 236 237 243 242 241 244 242 230 227 251 268 279 277 272 279 277 274 270 268 261 265 268 267 275 266 262 261 260 256 258 256 232 228 233 236 237 238 239 239 239 239 238 238 236 235 234 232 231 231 230 228 227 227 225 223 221 218 216 213 211 209 211 203
233 235 238 244 237 232 236 240 239 239 233 233 240 249 249 246 247 242 237 241 237 253 265 275 266 268 267 267 268 265 273 274 268 261 258 265 270 265 265 267 262 259 243 235 237 238 237 238 238 239 239 239 239 238 237 235 233 231 229 228 227 225 223 223 220 218 215 211 208 205 204 205 203 198
241 235 238 237 234 242 236 242 245 244 240 239 243 247 250 252 252 250 251 247 248 250 259 267 278 264 270 275 262 265 259 277 286 281 274 273 261 253 260 260 260 263 261 256 239 235 237 239 239 240 239 239 237 236 235 234 232 231 229 227 226 224 222 220 218 214 211 207 203 200 200 199 197 193
235 235 237 233 235 240 234 239 243 243 253 254 243 240 246 247 247 254 257 249 255 257 262 266 263 271 263 257 273 267 251 262 267 280 290 281 256 246 246 259 258 258 258 250 246 250 256 250 242 234 236 240 237 234 235 237 237 235 233 232 230 228 225 223 220 216 211 205 200 197 196 195 193 191
236 236 237 238 233 231 234 235 240 239 242 246 260 246 249 250 259 262 266 271 274 275 278 279 285 281 284 282 271 260 249 264 255 237 253 272 276 268 257 255 267 264 263 270 273 255 239 243 246 247 242 239 239 238 240 241 241 238 237 235 233 230 227 225 223 220 215 208 201 196 194 193 191 189
234 237 238 239 239 235 233 232 234 240 240 250 260 254 261 265 267 272 275 278 278 279 280 283 286 284 283 289 289 279 249 253 268 267 226 261 261 266 289 276 245 250 258 261 266 268 266 260 252 242 238 240 238 236 235 242 240 237 234 232 232 230 225 221 218 216 213 208 203 198 194 192 189 189
236 237 242 243 236 225 221 224 228 232 235 234 242 254 259 261 267 268 271 275 279 280 281 286 291 293 293 300 294 287 269 265 268 255 231 253 274 291 271 272 246 226 239 256 263 265 257 254 252 248 253 252 224 238 230 230 234 234 230 230 231 230 224 217 212 209 207 205 201 197 195 192 189 188
240 243 242 247 234 216 218 227 229 233 231 233 236 241 245 250 257 269 270 272 276 278 280 282 286 286 290 295 299 292 290 290 303 270 226 250 286 285 296 296 295 206 219 242 257 268 255 238 255 256 255 253 251 243 239 230 227 233 235 230 230 230 224 217 209 205 202 200 199 196 193 190 187 185
238 241 245 244 246 241 240 243 229 223 228 234 236 238 241 240 242 243 250 265 272 276 280 282 282 287 287 289 292 291 292 305 63 284 253 251 263 281 281 278 271 260 173 249 264 272 271 220 244 262 257 254 250 248 248 241 234 232 232 232 228 225 222 218 211 204 199 197 196 195 191 187 184 181
235 238 240 246 245 250 227 227 243 251 238 221 229 238 241 244 240 241 240 240 248 265 270 276 278 276 281 284 285 288 291 20 112 285 280 267 269 256 269 265 267 268 216 246 263 274 275 279 265 258 255 256 254 254 243 239 238 232 231 230 228 223 216 216 215 207 198 196 194 193 188 183 180 179
234 234 238 241 245 245 242 238 236 239 245 253 246 237 235 240 242 235 234 236 238 239 249 261 268 268 259 268 278 284 282 280 160 236 271 280 273 271 262 261 267 272 278 252 255 270 275 277 275 274 266 254 251 240 241 241 238 234 230 225 218 219 217 218 212 206 203 197 193 191 186 181 179 177
234 236 236 239 245 247 244 239 231 238 245 253 267 271 273 272 275 276 266 249 231 222 225 241 247 255 257 262 271 274 274 276 160 230 262 275 276 273 277 277 273 274 260 256 243 260 263 267 270 271 270 268 258 256 246 233 236 234 227 222 209 215 219 218 212 208 205 199 192 188 183 180 176 177
235 235 237 240 242 246 246 238 217 225 241 255 265 269 271 276 277 277 271 255 245 251 249 240 247 255 272 286 281 286 293 296 172 213 238 258 262 266 273 271 272 269 251 212 238 257 269 265 272 272 271 271 272 261 261 249 230 227 223 217 211 215 213 212 211 211 208 201 192 185 181 178 176 176
237 236 235 234 242 246 246 239 221 220 215 243 256 264 269 274 281 284 288 275 249 234 236 242 260 292 302 284 275 271 264 252 257 268 259 258 258 262 268 272 275 272 272 255 245 258 267 261 262 268 270 270 272 273 270 267 242 218 215 207 207 210 210 209 209 209 208 202 193 184 180 177 175 174
238 237 229 233 240 245 247 242 226 218 194 234 246 258 267 273 277 282 285 290 281 236 208 227 242 242 251 266 270 271 267 262 247 254 268 273 278 272 265 270 276 279 274 268 252 251 251 261 260 269 273 272 260 266 269 268 261 232 206 204 201 207 211 208 205 201 202 195 193 188 176 174 172 171
236 238 228 222 232 241 249 248 236 215 195 234 241 254 266 268 272 275 283 288 293 313 349 315 302 293 270 267 278 278 264 244 234 237 259 283 281 285 285 285 289 292 281 273 234 252 266 266 261 262 275 273 257 245 251 249 247 238 186 197 205 207 211 208 204 204 200 196 192 183 176 176 169 168
238 234 239 225 218 231 242 249 248 225 199 226 246 258 263 268 265 284 310 344 315 307 307 277 280 283 294 294 297 299 301 290 277 282 277 280 281 280 284 280 279 279 282 291 263 272 279 273 276 266 264 275 285 275 255 241 220 230 200 191 195 208 208 206 208 206 196 194 188 184 183 175 171 162
236 237 233 242 213 214 227 236 242 239 218 219 239 250 256 262 22 61 306 339 323 313 311 310 301 300 309 314 313 320 323 321 324 315 306 299 292 292 291 290 287 283 284 290 308 289 289 289 284 284 274 271 275 281 267 256 263 268 207 195 207 205 187 201 204 199 197 190 187 186 183 175 174 166
235 236 238 236 215 201 211 223 231 234 228 219 226 239 258 349 26 51 116 164 216 254 280 294 307 314 320 324 327 327 328 328 327 324 317 309 303 295 291 294 295 292 289 300 317 296 293 287 286 292 288 286 284 281 286 282 269 248 208 204 209 200 173 199 195 200 193 179 186 187 184 179 176 170
233 237 235 241 193 182 197 209 219 227 220 194 226 242 71 96 112 140 180 167 206 229 255 279 292 301 310 321 326 326 327 326 330 321 314 308 304 299 291 285 283 284 289 296 294 291 285 284 287 285 289 291 292 299 288 293 293 251 226 227 228 218 203 194 189 196 190 185 188 183 181 178 171 168
235 235 238 202 141 160 168 174 168 160 165 167 143 136 121 121 146 148 164 191 188 216 237 256 277 297 314 316 320 323 324 320 319 311 307 306 303 301 299 294 291 295 299 299 298 293 288 282 284 281 284 286 286 286 291 288 282 278 266 241 236 235 214 198 204 194 179 168 142 154 159 174 180 171
242 117 106 119 143 146 141 136 132 132 129 118 133 125 123 134 159 172 177 172 173 211 238 261 288 303 311 314 309 317 312 305 303 304 305 303 301 303 304 302 304 307 307 303 302 298 290 283 281 284 277 278 282 284 286 289 294 289 278 265 235 223 211 202 200 186 170 161 163 162 174 175 172 166
100 113 116 117 118 121 128 141 161 162 137 127 110 123 159 179 175 174 157 156 198 230 257 295 303 314 323 324 320 304 296 300 306 313 312 311 313 321 322 321 316 318 320 322 316 309 299 289 280 273 275 275 273 277 282 288 290 285 284 257 253 248 223 201 190 176 168 175 173 172 165 168 165 162
120 118 129 133 121 110 119 95 94 106 112 113 130 161 190 168 145 139 171 177 188 219 303 314 324 331 327 313 299 303 309 303 306 318 320 320 324 330 332 325 324 324 324 324 322 319 316 306 294 283 275 274 277 280 288 287 282 290 287 268 241 239 198 182 180 181 174 165 143 142 158 155 155 160
163 133 106 117 129 131 135 135 135 131 133 143 161 171 161 144 119 93 42 292 200 199 323 327 318 315 306 304 315 314 314 315 322 331 331 337 332 336 335 331 333 334 333 335 331 332 327 326 312 293 277 279 282 285 290 289 289 287 282 274 234 226 178 187 177 174 161 144 137 152 153 152 153 147
129 134 150 153 151 159 151 145 142 142 152 160 161 160 156 147 157 180 197 153 101 87 312 337 322 310 314 316 322 323 319 325 324 328 333 334 337 337 342 339 339 341 338 336 337 334 335 331 325 312 305 294 310 4 359 322 310 296 285 281 230 216 175 169 166 155 133 128 133 139 143 143 142 143
156 174 178 169 167 163 160 154 158 165 167 160 160 154 154 168 156 157 138 114 94 77 33 324 307 320 322 327 333 329 328 328 323 326 330 332 343 345 348 349 350 348 342 338 337 337 334 332 329 325 324 357 90 66 48 10 329 304 288 278 222 182 162 147 141 148 151 151 138 134 134 139 145 147
175 181 188 179 174 165 168 167 166 161 159 162 159 154 156 146 136 133 101 78 69 85 129 248 313 322 340 336 336 329 333 335 324 330 337 344 348 348 352 359 357 355 352 344 342 344 340 338 339 338 335 347 241 150 77 50 347 321 306 45 85 110 138 134 140 143 135 133 131 128 122 121 126 115
189 185 178 172 173 168 161 154 147 154 158 159 158 155 153 137 117 114 104 73 226 128 102 347 6 1 355 338 327 320 330 332 336 344 344 358 359 353 350 357 356 352 350 348 347 351 348 346 347 346 342 352 358 344 350 23 14 337 347 82 89 98 87 80 74 86 116 127 132 129 128 131 121 118
164 172 170 158 150 150 146 146 154 160 159 156 151 142 133 127 115 101 101 163 177 126 25 336 33 14 346 323 311 310 317 325 346 351 354 5 359 353 352 355 357 351 350 352 351 356 357 356 355 352 348 354 358 352 350 358 12 17 6 76 72 74 88 88 91 78 72 107 105 110 122 121 123 133
149 146 139 133 134 137 140 149 151 149 139 132 127 120 108 101 104 118 135 164 152 162 171 8 46 2 355 339 324 337 331 328 329 351 359 8 359 1 359 356 356 356 353 353 358 360 3 3 3 2 359 2 357 0 1 9 18 17 21 33 94 99 94 99 97 107 96 95 108 112 113 113 131 148
119 120 118 124 131 137 142 141 137 128 126 127 128 123 125 126 132 142 147 135 106 52 111 108 64 3 319 342 309 314 333 340 349 356 0 12 7 0 359 2 3 2 356 2 4 6 5 7 7 9 13 13 15 12 14 25 34 25 23 27 57 95 98 108 106 100 108 104 86 79 80 88 85 94
72 96 117 123 130 126 118 117 117 119 124 127 128 130 133 139 144 142 141 124 120 91 306 81 11 275 256 343 329 317 335 342 349 354 356 357 2 356 5 354 358 356 354 359 0 4 6 8 8 2 11 25 35 38 52 60 51 32 28 24 31 60 61 106 109 117 104 100 101 104 108 112 115 105
100 114 122 128 134 132 133 134 132 130 130 130 128 125 125 124 142 118 87 72 92 119 118 50 35 320 6 351 348 329 341 350 352 353 348 340 340 344 347 338 359 359 355 356 356 357 358 357 352 338 350 17 26 36 43 45 41 31 36 36 30 40 46 60 102 105 100 100 103 103 109 106 116 127
129 123 117 114 113 117 122 124 127 127 129 134 132 127 125 127 102 161 141 144 141 123 327 53 49 318 345 341 331 317 324 344 347 350 347 338 337 342 360 6 4 359 2 2 0 358 354 357 4 22 27 29 34 46 48 43 44 42 43 40 43 41 43 46 55 61 85 120 130 127 111 100 104 119
116 112 103 101 103 105 106 109 112 117 121 125 127 130 132 132 133 149 99 110 118 131 83 111 357 351 341 316 329 319 321 336 344 341 336 336 337 348 356 6 1 354 1 359 358 353 3 8 7 14 32 44 46 55 61 57 59 57 49 46 46 57 57 50 50 52 49 40 34 45 84 140 147 156
101 99 99 96 88 86 85 95 102 106 115 118 122 125 123 122 116 107 95 80 101 84 53 24 310 354 340 357 306 293 327 341 334 328 327 333 335 351 348 354 347 351 353 0 360 13 10 15 20 16 27 36 34 49 60 63 58 44 49 59 62 60 59 59 66 58 51 36 22 17 31 47 46 125
88 88 86 83 82 78 77 76 88 102 116 127 131 123 128 130 130 127 108 84 55 53 238 290 338 344 343 351 323 323 350 283 282 298 293 302 328 337 352 351 348 343 356 352 351 18 19 25 31 31 40 44 43 54 61 56 67 77 64 61 66 62 68 76 82 70 46 38 12 15 37 37 41 58